Probability
16 48 87 94 94 94 97 97 97 97 97 94 87 84 68 68 52 42 32 19 16 10 6 10 10 0 0 0 0 0 0 0 0 0 0 0 0 0 0 0 0 0 0
10 45 81 90 97 97 97 94 94 94 94 97 90 84 77 68 52 39 32 23 23 19 6 13 10 6 3 0 0 0 0 0 0 0 0 0 0 0 0 0 0 0 0
13 45 68 87 97 97 97 94 90 90 94 97 94 90 77 55 45 32 29 23 23 29 19 16 13 10 0 0 0 0 0 0 0 0 0 0 0 0 0 0 0 0 0
10 45 58 90 97 94 94 97 94 94 87 94 94 90 74 58 48 32 29 26 35 39 32 26 13 6 3 3 3 3 0 0 0 0 0 0 0 0 0 0 0 0 0
29 39 61 90 97 94 94 94 94 94 97 94 94 90 77 58 52 45 39 58 61 48 35 26 6 6 3 3 3 0 0 0 0 0 0 0 0 0 0 0 0 0 0
32 45 52 81 90 90 94 90 84 87 97 97 90 90 74 58 52 42 58 61 65 48 32 16 3 3 3 3 0 0 0 0 0 0 0 0 0 0 0 0 0 0 0
26 45 48 68 77 90 84 87 84 87 94 90 87 81 68 61 52 52 55 58 55 39 26 10 6 3 3 3 0 0 0 0 0 0 0 0 0 0 0 0 0 0 0
19 32 39 61 68 68 84 77 71 74 77 77 81 84 77 71 58 52 55 42 35 32 16 10 6 3 3 3 0 0 0 0 0 0 0 0 0 0 0 0 0 0 0
10 16 29 35 39 48 48 58 71 74 71 77 77 74 68 68 61 35 52 42 29 26 23 13 10 6 3 0 0 0 0 0 0 0 0 0 0 0 0 0 0 0 0
3 10 16 26 29 29 32 13 19 23 39 45 45 32 16 16 23 29 10 23 29 29 19 6 6 3 0 0 0 0 0 0 0 0 0 0 0 0 0 0 0 0 0
3 3 6 13 13 13 3 0 0 0 6 10 10 0 0 10 10 10 0 0 6 6 10 6 6 6 0 0 0 0 0 0 0 0 0 0 0 0 0 0 0 0 0
0 0 3 3 3 0 0 0 6 0 3 3 3 3 3 6 6 0 0 0 0 0 0 3 6 0 0 0 0 0 0 0 0 0 0 0 0 0 0 0 0 0 0
0 0 0 0 0 0 6 0 13 13 16 10 3 6 0 3 10 6 13 0 0 0 0 0 0 0 0 0 0 0 0 0 0 0 0 0 0 0 0 0 0 0 0
0 0 0 0 0 0 6 3 0 3 10 10 6 3 0 10 3 13 23 19 10 0 0 0 0 0 0 0 0 0 0 0 0 0 0 0 0 0 0 0 0 0 0
0 0 0 0 0 0 3 6 0 0 0 3 13 10 3 13 6 10 16 13 6 6 0 0 0 0 0 0 0 0 0 0 0 0 0 0 0 0 0 0 0 0 0
0 0 0 0 0 0 0 3 0 0 0 0 3 6 0 3 6 0 6 6 3 0 0 0 0 0 0 0 0 0 0 0 0 0 0 0 0 0 0 0 0 0 0
0 0 0 0 0 0 0 0 0 0 0 0 0 0 0 0 0 0 3 0 0 0 0 0 0 0 0 0 0 0 0 0 0 0 0 0 0 0 0 0 0 0 0
0 0 0 0 0 0 0 0 0 0 0 0 0 0 0 0 0 0 0 0 0 0 0 0 0 0 0 0 0 0 0 0 0 0 0 0 0 0 0 0 0 0 0
0 0 0 0 0 0 0 0 0 0 0 0 0 0 0 0 0 0 0 0 0 0 0 0 0 0 0 0 0 0 0 0 0 0 0 0 0 0 0 0 0 0 0
0 0 0 0 0 0 0 0 0 0 0 0 0 0 0 0 0 0 0 0 0 0 0 0 0 0 0 0 0 0 0 0 0 0 0 0 0 0 0 0 0 0 0
0 0 0 0 0 0 0 0 0 0 0 0 0 0 0 0 0 0 0 0 0 0 0 0 0 0 0 0 0 0 0 0 0 0 0 0 0 0 0 0 0 0 0
0 0 0 0 0 0 0 0 0 0 0 0 0 0 0 0 0 0 0 0 0 0 0 0 0 0 0 0 0 0 0 0 0 0 0 0 0 0 0 0 0 0 0
0 0 0 0 0 0 0 0 0 0 0 0 0 0 0 0 0 0 0 0 0 0 0 0 0 0 0 0 0 0 0 0 0 0 0 0 0 0 0 0 0 0 0
0 0 0 0 0 0 0 0 0 0 0 0 0 0 0 0 0 0 0 0 0 0 0 0 0 0 0 0 0 0 0 0 0 0 0 0 0 0 0 0 0 0 0
0 0 0 0 0 0 0 0 0 0 0 0 0 0 0 0 0 0 0 0 0 0 0 0 0 0 0 0 0 0 0 0 0 0 0 0 0 0 0 0 0 0 0
0 0 0 0 0 0 0 0 0 0 0 0 0 0 0 0 0 0 0 0 0 0 0 0 0 0 0 0 0 0 0 0 0 0 0 0 0 0 0 0 0 0 0
Height
5866 5866 5867 5868 5869 5870 5870 5871 5872 5873 5873 5874 5875 5875 5876 5877 5877 5877 5878 5878 5878 5878 5878 5878 5877 5877 5877 5877 5877 5877 5877 5876 5876 5876 5876 5876 5875 5875 5875 5874 5873 5873 5872
5862 5863 5864 5865 5866 5867 5867 5868 5869 5870 5870 5871 5872 5872 5873 5874 5874 5875 5875 5876 5876 5876 5876 5876 5876 5876 5876 5876 5875 5875 5875 5875 5875 5875 5875 5874 5874 5874 5874 5873 5872 5872 5871
5858 5859 5860 5861 5862 5863 5864 5865 5866 5866 5867 5868 5868 5869 5870 5871 5871 5872 5873 5873 5873 5873 5874 5874 5874 5874 5874 5874 5874 5874 5874 5873 5873 5873 5873 5873 5873 5872 5872 5872 5871 5871 5870
5853 5855 5856 5857 5858 5859 5860 5861 5862 5863 5863 5864 5865 5866 5866 5867 5868 5868 5869 5870 5870 5870 5871 5871 5871 5872 5872 5872 5872 5872 5872 5871 5871 5871 5871 5871 5871 5870 5870 5870 5870 5869 5868
5848 5850 5851 5852 5854 5855 5856 5857 5858 5859 5859 5860 5861 5862 5862 5863 5864 5864 5865 5866 5867 5867 5868 5868 5869 5869 5869 5869 5869 5869 5869 5869 5869 5869 5869 5869 5869 5868 5868 5868 5868 5867 5867
5843 5844 5846 5847 5848 5850 5851 5852 5853 5854 5855 5856 5857 5857 5858 5859 5860 5860 5861 5862 5863 5863 5864 5865 5865 5866 5866 5866 5866 5866 5867 5867 5866 5866 5866 5866 5866 5866 5866 5866 5865 5865 5864
5836 5838 5840 5841 5843 5844 5845 5846 5848 5849 5850 5851 5852 5852 5853 5854 5855 5856 5857 5857 5858 5859 5860 5861 5861 5862 5862 5863 5863 5863 5863 5863 5863 5863 5863 5863 5863 5863 5863 5863 5863 5862 5862
5829 5831 5833 5835 5836 5838 5839 5840 5842 5843 5844 5845 5846 5847 5848 5849 5850 5851 5851 5852 5853 5854 5855 5856 5857 5858 5858 5859 5859 5859 5860 5860 5860 5860 5860 5860 5860 5860 5860 5860 5860 5859 5859
5822 5824 5826 5827 5829 5831 5832 5834 5835 5837 5838 5839 5840 5841 5842 5843 5844 5845 5846 5847 5848 5849 5850 5851 5852 5853 5854 5854 5855 5855 5856 5856 5856 5856 5856 5857 5857 5857 5857 5857 5856 5856 5856
5814 5816 5818 5820 5821 5823 5825 5827 5828 5830 5831 5833 5834 5835 5836 5837 5838 5839 5840 5841 5842 5843 5844 5845 5846 5848 5848 5849 5850 5851 5851 5851 5852 5852 5852 5853 5853 5853 5853 5853 5853 5852 5852
5805 5807 5809 5811 5813 5815 5817 5819 5820 5822 5824 5825 5827 5828 5830 5831 5832 5833 5834 5835 5836 5837 5839 5840 5841 5842 5843 5844 5844 5845 5846 5846 5847 5847 5848 5848 5848 5849 5849 5849 5849 5848 5848
5796 5798 5800 5802 5804 5806 5808 5810 5812 5814 5815 5817 5819 5821 5822 5824 5825 5827 5828 5829 5830 5831 5832 5834 5835 5835 5836 5838 5838 5839 5840 5841 5842 5842 5843 5843 5844 5844 5844 5844 5844 5844 5844
5785 5787 5789 5792 5794 5796 5799 5801 5803 5805 5807 5809 5811 5813 5815 5816 5818 5820 5821 5822 5823 5824 5825 5827 5828 5829 5830 5831 5833 5834 5834 5835 5836 5837 5838 5838 5839 5839 5839 5839 5839 5839 5839
5775 5777 5778 5780 5783 5786 5788 5790 5793 5795 5798 5800 5802 5804 5806 5808 5810 5812 5813 5814 5816 5817 5818 5820 5821 5822 5823 5824 5826 5827 5828 5829 5830 5831 5832 5832 5833 5833 5834 5834 5834 5834 5834
5763 5765 5767 5769 5771 5774 5777 5779 5782 5785 5787 5790 5792 5794 5797 5799 5801 5803 5805 5806 5808 5809 5811 5812 5813 5815 5816 5817 5819 5820 5821 5822 5824 5825 5825 5826 5827 5827 5828 5828 5828 5828 5828
5750 5752 5754 5756 5759 5762 5764 5767 5770 5773 5776 5779 5782 5784 5787 5789 5792 5794 5796 5798 5800 5801 5803 5805 5806 5807 5809 5810 5812 5813 5814 5815 5816 5818 5819 5820 5820 5821 5821 5822 5822 5822 5822
5736 5738 5740 5743 5745 5748 5751 5754 5757 5761 5764 5767 5770 5773 5776 5779 5782 5784 5786 5789 5791 5793 5794 5796 5798 5799 5801 5803 5804 5805 5807 5808 5809 5810 5811 5812 5813 5814 5814 5815 5815 5816 5815
5722 5724 5726 5728 5731 5734 5738 5741 5744 5748 5751 5755 5758 5761 5765 5768 5771 5774 5777 5780 5782 5784 5786 5788 5789 5791 5793 5794 5796 5797 5799 5800 5801 5803 5804 5805 5806 5806 5807 5807 5808 5808 5808
5708 5710 5711 5714 5717 5720 5723 5727 5731 5735 5739 5742 5746 5750 5753 5757 5760 5764 5767 5769 5772 5774 5777 5779 5781 5782 5784 5785 5787 5788 5790 5791 5793 5794 5796 5797 5798 5798 5799 5800 5800 5801 5801
5694 5696 5697 5699 5702 5705 5709 5713 5717 5721 5725 5729 5733 5737 5741 5745 5749 5752 5756 5759 5762 5765 5767 5769 5772 5773 5774 5776 5777 5779 5781 5782 5784 5786 5787 5788 5789 5790 5791 5791 5792 5792 5792
5680 5682 5684 5686 5689 5691 5695 5699 5704 5708 5712 5717 5721 5725 5729 5733 5737 5741 5745 5748 5751 5755 5757 5759 5761 5763 5765 5766 5768 5770 5771 5773 5775 5776 5778 5779 5780 5781 5782 5782 5783 5783 5784
5668 5669 5671 5673 5676 5678 5682 5686 5690 5694 5699 5703 5708 5712 5717 5721 5725 5729 5733 5737 5741 5744 5747 5749 5751 5753 5755 5756 5758 5759 5761 5764 5766 5767 5768 5770 5771 5771 5772 5773 5774 5774 5774
5657 5657 5658 5660 5663 5666 5670 5674 5678 5682 5687 5691 5696 5700 5705 5709 5714 5718 5722 5726 5730 5733 5736 5738 5740 5742 5744 5746 5747 5749 5752 5754 5756 5758 5759 5760 5760 5761 5762 5763 5764 5764 5765
5648 5648 5648 5650 5652 5656 5659 5663 5667 5672 5676 5680 5684 5689 5693 5698 5703 5707 5710 5714 5717 5721 5724 5727 5730 5732 5733 5735 5737 5739 5742 5744 5745 5747 5749 5749 5750 5751 5752 5753 5754 5754 5755
5641 5641 5641 5643 5645 5648 5651 5655 5659 5663 5667 5670 5674 5679 5683 5688 5692 5696 5699 5702 5706 5709 5712 5716 5718 5721 5723 5725 5727 5729 5730 5732 5734 5736 5738 5739 5739 5740 5741 5742 5743 5744 5744
5637 5637 5637 5638 5640 5642 5645 5648 5652 5656 5659 5662 5666 5670 5674 5678 5682 5685 5688 5691 5695 5698 5701 5704 5707 5709 5711 5713 5715 5717 5719 5721 5723 5724 5726 5727 5728 5729 5730 5731 5732 5733 5734
Wind_Speed
21 20 20 19 19 18 18 19 18 18 18 18 19 18 17 16 16 15 14 13 11 10 8 7 6 5 5 4 4 4 4 4 5 5 5 6 6 7 7 7 8 8 9
23 22 22 21 21 20 20 19 19 20 20 19 20 20 20 19 18 17 16 16 15 13 12 10 9 8 7 6 5 5 5 5 5 6 6 7 7 7 8 8 8 9 9
25 25 24 23 23 22 22 22 21 21 21 22 22 21 21 21 21 20 19 18 17 16 15 13 12 11 10 9 8 7 7 7 7 7 7 7 8 8 8 9 9 9 10
28 27 26 26 25 25 24 24 23 23 23 23 23 23 23 23 23 22 22 21 19 19 18 17 15 13 12 11 10 10 9 9 8 8 8 8 8 9 9 10 10 10 11
31 30 29 28 27 27 27 26 26 26 25 24 24 25 25 25 25 25 24 23 22 21 20 19 18 17 15 14 13 12 12 11 11 10 10 10 10 10 11 11 11 11 12
35 34 33 31 31 30 29 29 28 28 28 27 26 26 26 27 27 27 26 26 24 24 23 22 21 19 18 17 16 15 14 14 13 12 12 12 12 12 12 12 12 12 13
38 37 36 35 34 33 32 31 31 30 30 29 29 28 28 28 28 29 29 28 27 26 25 25 24 22 21 20 19 18 17 16 15 15 14 13 13 14 14 14 14 14 14
40 40 39 38 38 37 36 34 33 33 32 32 31 31 30 29 29 30 30 31 30 29 28 27 26 25 24 23 22 21 20 19 18 17 16 16 15 15 15 15 15 15 16
43 42 42 42 41 40 39 38 37 36 35 34 34 33 32 32 31 31 32 32 32 32 31 30 29 28 27 26 25 24 23 22 21 20 19 18 18 17 17 17 17 17 17
45 45 45 44 43 43 42 40 40 39 38 37 36 35 35 34 33 34 33 33 33 33 33 32 31 30 29 28 27 27 25 24 24 23 22 21 20 20 19 19 19 19 19
47 47 47 47 47 46 45 43 42 41 41 40 39 38 37 37 36 35 35 35 35 35 34 34 33 32 32 31 30 29 28 27 26 25 24 23 23 22 22 21 21 21 21
48 48 49 50 49 49 47 46 45 44 43 42 41 40 39 39 38 37 37 37 37 36 36 36 36 35 34 33 32 31 31 30 29 28 27 26 25 24 24 23 23 23 23
49 49 50 51 52 52 51 50 49 48 47 45 44 43 42 41 41 39 39 38 37 37 37 37 37 37 37 36 34 33 33 32 31 30 29 28 27 26 26 25 25 25 25
50 51 52 53 53 53 54 53 52 51 50 49 47 46 45 43 42 42 42 40 40 39 38 39 39 39 38 37 36 36 35 34 33 32 32 31 29 28 28 27 27 27 26
52 53 53 54 55 55 55 55 55 54 53 52 50 49 48 46 45 44 43 42 42 41 40 40 40 40 40 39 38 37 37 36 36 34 34 33 32 31 30 29 29 29 29
55 55 56 56 56 57 57 57 57 56 56 55 54 52 51 49 48 46 46 45 44 43 41 41 41 40 41 40 40 39 39 38 37 37 36 35 34 33 32 31 31 31 31
56 57 58 58 58 58 59 59 58 58 58 57 56 55 54 52 50 49 48 46 45 44 42 42 42 42 42 42 41 41 41 40 39 39 38 36 36 35 34 33 33 32 32
57 58 58 59 59 59 59 59 59 58 58 58 58 57 56 55 53 50 49 49 47 45 43 43 43 43 43 43 43 43 43 42 41 40 39 38 37 37 36 35 35 35 35
55 55 56 58 58 58 59 59 59 59 58 58 58 57 57 56 54 53 50 49 48 46 45 45 45 45 45 45 44 44 44 44 43 41 41 40 39 38 38 38 37 37 37
52 52 53 54 56 57 58 58 58 58 58 58 58 57 57 57 56 55 52 50 49 48 47 47 46 46 46 46 46 46 45 44 44 43 42 42 41 40 40 39 39 39 39
49 50 51 51 53 54 56 57 57 58 57 57 58 58 57 56 56 55 53 52 50 49 49 49 49 47 46 47 46 46 46 46 45 44 44 43 42 41 41 40 40 40 40
43 45 47 49 50 51 52 54 55 56 56 55 56 57 57 56 55 54 53 53 52 51 50 49 49 49 48 48 48 48 47 46 44 44 43 43 43 43 42 41 41 41 41
35 38 40 43 45 47 48 49 51 52 53 54 55 55 55 55 55 54 54 54 54 53 52 51 51 50 50 50 50 51 49 48 46 45 44 43 43 43 43 42 42 42 42
28 30 32 35 37 39 41 43 45 46 48 50 51 52 52 52 53 53 53 54 53 53 53 52 51 52 52 52 51 51 50 49 48 46 46 46 46 45 45 44 44 43 43
21 22 24 26 28 31 34 36 38 40 41 43 46 48 49 50 51 52 52 53 54 53 53 53 52 52 53 52 51 50 51 51 49 48 48 47 46 46 46 45 44 44 44
12 13 15 17 18 21 25 28 30 32 34 37 39 42 45 46 48 49 51 51 52 52 53 53 53 53 53 52 51 52 52 51 50 49 48 46 46 46 46 47 45 45 44
Wind_Direction
255 255 255 256 256 256 256 256 256 256 256 256 255 255 256 257 257 256 255 255 255 256 256 257 260 261 266 275 282 286 291 290 285 286 289 289 287 289 296 304 311 317 323
256 256 256 256 257 257 257 258 258 257 257 258 258 257 257 257 258 258 256 255 255 255 254 254 256 257 258 260 266 273 277 279 278 278 281 282 283 286 291 297 303 308 315
254 255 255 255 256 257 258 258 258 259 259 259 259 259 259 259 259 259 258 256 256 256 255 253 253 255 256 256 257 261 266 269 271 272 274 277 279 281 285 290 296 301 307
252 253 254 255 255 256 257 258 258 259 260 260 260 259 260 260 259 259 259 257 256 256 255 254 252 253 254 255 254 256 258 261 264 267 268 270 273 276 279 284 289 295 300
251 252 252 254 255 255 256 257 258 259 259 260 261 260 260 260 260 259 258 258 257 256 255 254 253 252 253 253 254 254 255 257 259 262 264 266 269 272 275 279 283 289 294
251 251 252 252 253 254 255 255 257 258 259 260 260 260 260 260 260 260 259 259 258 257 256 254 253 252 252 252 252 253 253 255 256 259 261 263 266 269 272 275 279 283 288
251 251 251 252 252 253 254 255 255 256 257 259 260 260 260 260 260 260 260 259 258 257 256 255 254 252 252 252 252 252 252 253 254 256 259 261 264 266 269 271 274 278 282
251 251 251 252 252 253 253 254 255 255 255 256 258 260 260 260 260 260 259 259 258 256 255 255 254 253 252 252 252 252 252 252 252 253 255 258 262 264 266 269 271 274 278
250 251 251 252 252 252 253 254 254 255 255 255 256 258 259 259 259 258 259 259 258 257 255 254 254 253 252 252 251 251 251 251 252 253 254 255 259 262 264 267 269 272 275
250 250 251 251 251 252 252 253 253 254 254 254 255 256 257 258 258 259 258 258 258 257 255 254 254 253 252 251 251 251 252 251 251 252 253 255 257 260 263 265 267 270 273
251 250 250 251 251 251 252 252 252 253 254 254 254 254 255 256 257 258 258 257 256 257 256 254 254 253 252 251 251 251 252 252 251 251 253 254 255 258 261 263 265 268 272
253 252 252 251 251 251 251 251 251 252 253 253 253 253 253 254 255 257 258 257 257 257 256 255 253 253 253 252 251 251 252 252 252 251 252 254 255 257 259 262 264 267 270
255 254 253 253 252 251 251 251 251 251 251 252 252 253 252 253 254 254 256 256 256 256 255 254 253 253 254 253 253 252 252 253 253 252 252 253 255 257 259 261 264 266 269
257 256 255 254 253 252 251 251 251 250 250 251 251 252 252 251 252 252 253 254 255 255 254 253 253 253 253 253 253 253 253 253 253 253 254 254 255 257 259 262 263 266 268
259 258 256 255 254 253 252 251 250 250 250 250 249 250 250 249 250 251 253 252 253 254 253 253 253 253 253 253 254 254 253 254 254 254 255 255 256 257 259 261 263 265 267
259 258 257 256 255 254 252 251 250 250 249 249 249 249 249 249 249 249 251 251 251 252 253 253 253 253 253 255 256 254 254 253 254 255 255 256 256 257 259 261 263 265 267
260 259 257 256 255 254 253 251 250 249 249 248 248 248 247 248 248 249 250 250 250 250 250 251 253 253 254 255 256 256 255 254 255 255 256 256 257 258 258 260 262 264 267
260 259 258 256 255 254 252 251 250 249 249 248 247 247 247 247 246 247 249 248 247 247 247 250 252 253 254 255 255 256 257 255 255 256 257 257 257 258 259 260 261 264 266
260 259 258 256 255 253 252 250 249 248 248 247 247 247 246 246 245 245 246 247 245 245 247 248 250 252 253 254 256 257 258 257 256 257 257 257 258 259 259 260 261 264 266
260 259 258 256 254 253 250 249 248 248 247 246 245 246 246 245 243 242 243 245 245 246 247 247 249 251 253 255 256 256 257 258 257 257 257 258 258 258 260 261 262 263 265
259 258 257 256 254 252 250 249 248 247 246 245 244 244 244 244 243 242 242 244 245 245 246 247 248 250 252 254 255 256 257 257 257 258 258 258 259 259 260 261 262 264 265
262 259 257 255 253 251 250 248 247 245 244 244 243 243 243 242 242 242 243 243 244 245 246 247 248 249 251 253 254 255 256 256 257 258 258 258 259 259 260 261 263 264 265
263 260 256 252 251 250 248 247 246 245 244 244 243 242 241 241 242 243 243 244 245 246 247 248 248 249 251 253 253 254 257 257 258 257 258 259 259 259 261 262 264 264 265
264 260 254 251 249 247 246 246 245 245 244 244 242 241 240 241 242 243 244 244 244 246 247 247 249 250 251 253 254 255 256 256 256 257 258 259 259 260 261 262 264 265 265
265 259 253 250 247 245 243 243 242 242 242 242 241 241 241 243 244 245 245 245 244 245 247 248 249 249 250 252 253 255 256 256 256 258 259 259 259 261 261 262 264 265 266
266 256 251 248 246 244 240 238 238 240 241 242 242 241 242 244 245 246 245 245 245 247 247 248 249 248 248 250 253 254 255 256 256 257 258 258 260 261 261 262 264 265 266